TimeMDT,TemperatureF,Dew PointF,Humidity,Sea Level PressureIn,VisibilityMPH,Wind Direction,Wind SpeedMPH,Gust SpeedMPH,PrecipitationIn,Events,Conditions,WindDirDegrees,DateUTC
12:51 AM,51.1,44.1,77,29.74,10.0,West,10.4,-,0.01,Rain,Light Rain,260,2011-10-12 06:51:00
1:51 AM,48.9,42.1,77,29.75,10.0,WSW,11.5,-,0.01,,Clear,250,2011-10-12 07:51:00
2:51 AM,48.9,39.9,71,29.78,10.0,West,15.0,-,N/A,,Clear,270,2011-10-12 08:51:00
3:51 AM,48.9,39.9,71,29.80,10.0,West,13.8,-,N/A,,Overcast,270,2011-10-12 09:51:00
5:51 AM,48.0,37.9,68,29.85,10.0,West,10.4,-,N/A,,Scattered Clouds,270,2011-10-12 11:51:00
6:51 AM,46.0,37.9,73,29.88,10.0,West,13.8,-,N/A,,Partly Cloudy,260,2011-10-12 12:51:00
8:51 AM,52.0,36.0,54,29.90,10.0,West,18.4,24.2,N/A,,Clear,280,2011-10-12 14:51:00
9:51 AM,54.0,34.0,47,29.91,10.0,WNW,26.5,33.4,N/A,,Clear,290,2011-10-12 15:51:00
10:51 AM,55.9,34.0,44,29.91,10.0,WNW,26.5,36.8,N/A,,Clear,300,2011-10-12 16:51:00
11:51 AM,59.0,34.0,39,29.91,10.0,NW,24.2,36.8,N/A,,Clear,310,2011-10-12 17:51:00
12:51 PM,61.0,33.1,35,29.90,10.0,WNW,27.6,34.5,N/A,,Clear,290,2011-10-12 18:51:00
1:51 PM,62.1,33.1,34,29.90,10.0,WNW,25.3,34.5,N/A,,Clear,300,2011-10-12 19:51:00
2:51 PM,62.1,30.9,31,29.89,10.0,NW,24.2,39.1,N/A,,Clear,310,2011-10-12 20:51:00
3:51 PM,62.1,30.0,30,29.89,10.0,WNW,27.6,38.0,N/A,,Clear,290,2011-10-12 21:51:00
4:51 PM,61.0,30.9,32,29.90,10.0,WNW,21.9,32.2,N/A,,Clear,300,2011-10-12 22:51:00
5:51 PM,57.9,30.9,36,29.93,10.0,NW,15.0,26.5,N/A,,Clear,310,2011-10-12 23:51:00
6:51 PM,52.0,32.0,47,29.95,10.0,WNW,9.2,-,N/A,,Clear,290,2011-10-13 00:51:00
7:51 PM,48.0,32.0,54,29.96,10.0,West,9.2,-,N/A,,Clear,280,2011-10-13 01:51:00
8:51 PM,46.0,32.0,58,29.94,10.0,WSW,10.4,-,N/A,,Clear,250,2011-10-13 02:51:00
9:51 PM,43.0,32.0,65,29.95,10.0,West,8.1,-,N/A,,Clear,270,2011-10-13 03:51:00
10:51 PM,44.1,32.0,63,29.94,10.0,West,6.9,-,N/A,,Clear,260,2011-10-13 04:51:00
11:51 PM,46.0,32.0,58,29.94,10.0,WSW,12.7,-,N/A,,Clear,250,2011-10-13 05:51:00